Location: ????????
(56.0167°N, 38.0333°E)
Time: 09:37:44
(UTC+00:00)

ARIANE 6 FM1 Upper Stage - Visible Passes

Search period start: 20 January 2026 00:00
Search period end: 30 January 2026 00:00
Orbit: 522 x 610 km, 62.0° (Epoch: 19 January)

Date Brightness Start Highest point End Pass type
(mag) Time Alt. Az. Time Alt. Az. Time Alt. Az.
22 Jan 4.8 16:01:39 10° SSE 16:02:34 14° SSE 16:02:34 14° SSE visible
23 Jan 4.2 16:01:11 10° S 16:03:21 21° SSE 16:03:21 21° SSE visible
23 Jan 5.5 17:39:03 10° WSW 17:39:24 12° WSW 17:39:24 12° WSW visible
24 Jan 3.6 16:00:53 10° SSW 16:04:03 30° SE 16:04:03 30° SE visible
24 Jan 5.3 17:39:16 10° WSW 17:40:06 16° WSW 17:40:06 16° WSW visible
25 Jan 3.0 16:00:43 10° SSW 16:04:31 40° SE 16:04:39 40° SE visible
25 Jan 5.2 17:39:31 10° WSW 17:40:42 18° W 17:40:42 18° W visible
26 Jan 2.7 16:00:39 10° SW 16:04:35 53° SE 16:05:11 47° ESE visible
26 Jan 5.1 17:39:47 10° W 17:41:12 20° W 17:41:12 20° W visible
27 Jan 2.5 16:00:39 10° SW 16:04:41 69° SE 16:05:38 48° ENE visible
27 Jan 5.0 17:40:04 10° W 17:41:39 21° WNW 17:41:39 21° WNW visible
28 Jan 2.4 16:00:44 10° SW 16:04:47 87° SSE 16:06:01 43° ENE visible
28 Jan 5.0 17:40:22 10° W 17:42:03 22° WNW 17:42:03 22° WNW visible
29 Jan 2.6 16:00:53 10° WSW 16:04:55 76° NNW 16:06:21 38° NE visible
29 Jan 4.9 17:40:39 10° WNW 17:42:22 22° WNW 17:42:22 22° WNW visible
